[[{"header":{"parameterUnit":"m.s-1","parameterCategory":2,"la1":30.2991,"la2":30.254,"lo1":-89.0895,"lo2":-89.0444,"dy":0.0017,"dx":0.0017,"nx":28,"ny":28,"refTime":"2025-03-21T21:00:00:Z","depth":"0","parameterNumber":2,"parameterNumberName":"U-component_of_CURRENTS"},"data":[0,0,0,0,0,0,0,0,0,0,0,0,0,0,0,0,0,0,0,0,0,0,0,0,0,0,0,0,0,0,0,0,0,0,0,0,0,0,0,0,0,0,0,0,0,0,0,0,0,0,0,0,0,0,0,0,0,0,0.3466,0.3466,0,0.3495,0.3495,0.3496,0.3488,0.3487,0.3487,0.3487,0.3491,0.3491,0.3492,0,0,0,0,0,0,0,0,0,0,0,0,0,0.3358,0.336,0.3466,0.3466,0.3467,0.3495,0.3495,0.3496,0.3488,0.3487,0.3487,0.3487,0.3491,0.3491,0.3492,0,0,0,0,0,0,0,0,0,0,0,0,0,0.3395,0.336,0.3466,0.3468,0.3469,0.3495,0.3495,0.3496,0.3488,0.3487,0.3487,0.3486,0.3491,0.3491,0.3492,0.3507,0,0,0.3494,0.3494,0,0,0,0,0,0,0,0,0.3393,0.3399,0.3467,0.3468,0.3469,0.3489,0.3459,0.3499,0.3488,0.3478,0.3487,0.3486,0.349,0.3491,0.3494,0.3507,0.3508,0.3494,0.3494,0.3495,0.3495,0,0,0,0,0,0,0,0.3391,0.3398,0.3475,0.3468,0.3469,0.3453,0.3457,0.3466,0.3485,0.3479,0.3479,0.3486,0.349,0.3494,0.3494,0.3508,0.3494,0.3495,0.3495,0.3495,0.3581,0.3583,0,0,0,0,0,0,0.3395,0.3396,0.3474,0.3476,0.3432,0.3455,0.3461,0.3482,0.3485,0.3486,0.3487,0.3486,0.3493,0.3494,0.3495,0.3547,0.3495,0.3495,0.3496,0.3579,0.3582,0.3584,0,0,0,0,0,0,0.3393,0.3403,0.3473,0.3437,0.3445,0.3458,0.3481,0.3482,0.3489,0.3492,0.3491,0.3493,0.3493,0.3494,0.3515,0.3545,0.3496,0.3496,0.3577,0.358,0.3583,0.363,0,0,0,0,0,0,0.339,0.3402,0.342,0.3438,0.3448,0.3501,0.3482,0.3483,0.3495,0.3495,0.3497,0.3497,0.3492,0.3514,0.3516,0.3546,0.3497,0.3575,0.3578,0.3582,0.3626,0.3634,0.364,0,0,0,0,0,0.3386,0.3413,0.3421,0.3431,0.3472,0.3502,0.3505,0.351,0.3496,0.351,0.3512,0.3497,0.3538,0.3516,0.3518,0.3548,0.3573,0.3577,0.3581,0.3622,0.3632,0.364,0,0,0,0,0,0,0.3366,0.3416,0.3425,0.3463,0.3487,0.3502,0.3515,0.3514,0.3525,0.3522,0.3514,0.3515,0.3549,0.3545,0.3521,0.3586,0.3556,0.3561,0.3587,0.3596,0.3603,0.3606,0.3497,0,0,0,0,0,0.3374,0.3412,0.3446,0.3475,0.349,0.3502,0.3514,0.3519,0.3531,0.3534,0.3536,0.3546,0.3569,0.3577,0.3593,0.3622,0.3621,0.3647,0.3654,0.366,0.3666,0.3702,0.3713,0.3597,0.3597,0.3597,0,0,0.3366,0.3404,0.3419,0.3474,0.349,0.351,0.3507,0.3531,0.3549,0.3534,0.3556,0.357,0.3583,0.3621,0.3636,0.3619,0.3692,0.3665,0.367,0.3673,0.3708,0.3719,0.3729,0.36,0.36,0.3599,0,0,0.3364,0.3412,0.3434,0.3464,0.3504,0.3521,0.3529,0.3553,0.357,0.3596,0.3598,0.3632,0.3649,0.3677,0.3689,0.3748,0.3731,0.3755,0.3792,0.3828,0.3837,0.3845,0.3849,0.3858,0.3757,0.3758,0.3758,0,0.3339,0.339,0.3442,0.3471,0.3492,0.3524,0.3539,0.3569,0.3595,0.3617,0.3609,0.3668,0.3679,0.3738,0.3764,0.3765,0.377,0.3753,0.3836,0.3844,0.3852,0.3854,0.3863,0.376,0.376,0.376,0.3759,0,0.3348,0.3392,0.341,0.3462,0.3496,0.3519,0.3569,0.3604,0.3623,0.3647,0.3709,0.3737,0.3769,0.3792,0.3795,0.3867,0.3846,0.384,0.3809,0.3866,0.3865,0.3873,0.3764,0.3763,0.3762,0.3762,0,0,0.3255,0.3387,0.3384,0.3415,0.3495,0.3511,0.3575,0.3632,0.3668,0.3711,0.3761,0.382,0.3836,0.3854,0.3875,0.3919,0.3979,0.3907,0.3908,0.3902,0.4038,0.3962,0.3963,0.3987,0.3989,0.399,0.4011,0,0.3228,0.328,0.3361,0.3398,0.3427,0.3508,0.3564,0.3627,0.3687,0.375,0.3811,0.3864,0.386,0.3889,0.3932,0.3984,0.4004,0.3973,0.3991,0.3991,0.391,0.3972,0.3868,0.3873,0.4019,0.402,0.4021,0,0.3187,0.3237,0.3274,0.3385,0.3403,0.3432,0.3528,0.3593,0.3714,0.3764,0.3837,0.3886,0.3976,0.3958,0.4049,0.4029,0.4029,0.4056,0.4057,0.3975,0.3931,0.3843,0.3882,0.3837,0.4033,0.4032,0.4031,0,0.3075,0.3168,0.3196,0.3227,0.3354,0.3389,0.3458,0.3581,0.3662,0.3782,0.385,0.3935,0.4007,0.4037,0.4092,0.4076,0.418,0.4155,0.4075,0.4068,0.3977,0.3959,0.3967,0.4188,0.4188,0.4188,0.4188,0,0.3016,0.3036,0.3142,0.3155,0.3199,0.3313,0.3388,0.348,0.3633,0.373,0.3845,0.3932,0.4038,0.4113,0.4116,0.4129,0.4187,0.4092,0.4079,0.3989,0.3972,0.3926,0.3901,0.4189,0.4188,0.4188,0.4188,0,0.2913,0.2981,0.3019,0.3123,0.3156,0.3186,0.3355,0.3426,0.3578,0.3717,0.3766,0.396,0.4052,0.4124,0.4199,0.4165,0.4077,0.4148,0.4022,0.3994,0.3847,0.3828,0.3651,0.3549,0.4059,0.4058,0.4056,0,0.2878,0.2884,0.2964,0.2989,0.3041,0.3117,0.3191,0.3367,0.3465,0.372,0.3783,0.3944,0.402,0.4112,0.4102,0.4084,0.4,0.3964,0.3908,0.3836,0.3807,0.3657,0.3575,0.3805,0.3802,0.3799,0.3797,0,0.2812,0.2829,0.2861,0.291,0.2965,0.3039,0.3159,0.3228,0.3449,0.3554,0.3708,0.3795,0.3934,0.3906,0.3925,0.3905,0.3808,0.3904,0.3881,0.365,0.344,0.3337,0.3781,0.3773,0.3775,0.3777,0.3778,0.3779,0.2754,0.2749,0.2786,0.2826,0.2891,0.2951,0.2959,0.3093,0.3197,0.3336,0.3522,0.3586,0.3734,0.3752,0.3708,0.3642,0.3597,0.3569,0.3563,0.3428,0.3286,0.3657,0.3603,0.3604,0.3605,0.3606,0.3607,0,0.2675,0.2682,0.2715,0.2745,0.2762,0.2835,0.2926,0.2905,0.293,0.3115,0.3192,0.3325,0.3347,0.3442,0.3471,0.3361,0.3203,0.329,0.3098,0.3044,0.344,0.339,0.3226,0.3226,0.3226,0.3226,0.3226,0.3226,0.2633,0.2613,0.2624,0.2605,0.2623,0.2585,0.2587,0.2568,0.2648,0.2696,0.2769,0.2894,0.3207,0.3365,0.3315,0.3226,0.301,0.2854,0.2839,0.3198,0.3225,0.325,0.3199,0.2998,0.2998,0.2335,0.2331,0.2327]},{"header":{"parameterUnit":"m.s-1","parameterCategory":2,"la1":30.2991,"la2":30.254,"lo1":-89.0895,"lo2":-89.0444,"dy":0.0017,"dx":0.0017,"nx":28,"ny":28,"refTime":"2025-03-21T21:00:00:Z","depth":"0","parameterNumber":3,"parameterNumberName":"V-component_of_CURRENTS"},"data":[0,0,0,0,0,0,0,0,0,0,0,0,0,0,0,0,0,0,0,0,0,0,0,0,0,0,0,0,0,0,0,0,0,0,0,0,0,0,0,0,0,0,0,0,0,0,0,0,0,0,0,0,0,0,0,0,0,0,0.0205,0.0205,0,0.0152,0.0152,0.0151,0.011,0.011,0.0109,0.0109,0.0044,0.0042,0.0041,0,0,0,0,0,0,0,0,0,0,0,0,0,0.0241,0.024,0.0205,0.0205,0.0204,0.0152,0.0152,0.0151,0.011,0.011,0.0109,0.0109,0.0044,0.0042,0.0041,0,0,0,0,0,0,0,0,0,0,0,0,0,0.021,0.024,0.0205,0.0178,0.0175,0.0153,0.0152,0.0151,0.011,0.011,0.0109,0.0109,0.0045,0.0043,0.004,0.0037,0,0,0.0034,0.0033,0,0,0,0,0,0,0,0,0.0211,0.0208,0.0183,0.018,0.0177,0.0138,0.014,0.0112,0.011,0.0134,0.0109,0.0108,0.0075,0.007,0.006,0.0034,0.0031,0.0034,0.0032,0.0031,0.0031,0,0,0,0,0,0,0,0.0214,0.021,0.0183,0.0182,0.0178,0.0158,0.0153,0.0134,0.0107,0.0132,0.0129,0.0124,0.0073,0.0063,0.0059,0.003,0.0034,0.0032,0.003,0.003,-0.0002,-0.0002,0,0,0,0,0,0,0.0224,0.0212,0.0185,0.0182,0.0194,0.0158,0.0153,0.015,0.0107,0.0101,0.0125,0.0123,0.0067,0.0061,0.0056,0.0065,0.0031,0.0029,0.0028,-0.0003,-0.0002,-0.0001,0,0,0,0,0,0,0.0225,0.0222,0.0187,0.0196,0.0191,0.0158,0.0156,0.0149,0.0142,0.0102,0.0095,0.0124,0.0066,0.0059,0.0044,0.0061,0.0028,0.0026,-0.0003,-0.0002,-0.0002,0.0072,0,0,0,0,0,0,0.0226,0.0223,0.0226,0.0197,0.0191,0.0184,0.0156,0.0149,0.014,0.0136,0.0099,0.0092,0.0065,0.0048,0.0042,0.0058,0.0025,-0.0004,-0.0003,-0.0002,0.0069,0.0076,0.0081,0,0,0,0,0,0.0228,0.0243,0.0227,0.0224,0.0196,0.0185,0.018,0.0155,0.0141,0.0144,0.0116,0.0094,0.0049,0.0046,0.004,0.0055,-0.0004,-0.0003,-0.0002,0.0067,0.0074,0.0081,0,0,0,0,0,0,0.0267,0.0239,0.0221,0.0228,0.021,0.0179,0.0181,0.0162,0.0142,0.0139,0.0099,0.0091,0.0081,0.0058,0.0056,0.0047,0.0019,0.0019,0.0074,0.008,0.0086,0.0111,0.0023,0,0,0,0,0,0.0275,0.0276,0.0246,0.0253,0.0245,0.0213,0.0205,0.0189,0.0166,0.0157,0.0129,0.0101,0.008,0.0073,0.0047,0.0047,0.0022,0.0052,0.0058,0.0063,0.0078,0.0057,0.0062,0.0002,0.0002,0.0002,0,0,0.0292,0.0278,0.0278,0.026,0.0243,0.0245,0.0208,0.0204,0.0212,0.0154,0.0155,0.0117,0.0082,0.0078,0.0072,0.0063,0.0064,0.0064,0.0069,0.0081,0.0058,0.0064,0.007,0.0003,0.0002,0.0002,0,0,0.0333,0.0314,0.0327,0.0316,0.0297,0.0275,0.0278,0.0248,0.0242,0.0232,0.0194,0.0172,0.0137,0.0121,0.0108,0.0132,0.009,0.0118,0.0175,0.0155,0.016,0.0164,0.0129,0.0129,0.0128,0.0128,0.0128,0,0.0356,0.0367,0.0332,0.0344,0.0342,0.0294,0.0312,0.03,0.0271,0.0277,0.0243,0.0198,0.0162,0.017,0.0171,0.0147,0.0121,0.0154,0.0164,0.0167,0.017,0.0133,0.0133,0.0132,0.0131,0.0131,0.0131,0,0.0404,0.0412,0.0423,0.0416,0.041,0.0419,0.0394,0.0398,0.0372,0.0352,0.0345,0.0289,0.0267,0.0247,0.0213,0.0224,0.0191,0.0169,0.015,0.0181,0.0139,0.0138,0.0137,0.0136,0.0135,0.0134,0,0,0.0457,0.0457,0.0462,0.0473,0.0451,0.0455,0.0475,0.0479,0.0509,0.0458,0.0486,0.0427,0.0386,0.0368,0.0322,0.0301,0.0284,0.0249,0.0246,0.0222,0.0227,0.0191,0.0185,0.0262,0.0263,0.0263,0.0185,0,0.0507,0.0554,0.0532,0.057,0.0588,0.0559,0.0588,0.0586,0.0571,0.0585,0.0528,0.0519,0.0437,0.0426,0.0391,0.0319,0.0285,0.0307,0.0194,0.0191,0.0162,0.0184,0.0205,0.0137,0.0183,0.0183,0.0183,0,0.0559,0.0585,0.0635,0.066,0.0666,0.068,0.0719,0.0739,0.0744,0.0735,0.0708,0.0649,0.0611,0.0533,0.0423,0.0439,0.0339,0.0271,0.0266,0.021,0.0153,0.0114,0.0132,-0.0028,0.018,0.018,0.018,0,0.0619,0.0654,0.0699,0.0705,0.0725,0.0755,0.0772,0.079,0.0838,0.0831,0.0858,0.0775,0.0758,0.0627,0.0462,0.0445,0.0335,0.0294,0.0164,0.0159,0.0145,0.0139,0.0006,0.0212,0.0213,0.0213,0.0213,0,0.0675,0.071,0.0735,0.076,0.0833,0.0822,0.0908,0.0916,0.0963,0.1038,0.0939,0.0975,0.0782,0.0687,0.0512,0.0338,0.0367,0.0182,0.0145,0.0169,0.0166,0.0,-0.0108,0.021,0.021,0.0211,0.0212,0,0.072,0.0736,0.0793,0.0839,0.0859,0.0913,0.1003,0.1079,0.1099,0.1199,0.1203,0.1138,0.1009,0.0795,0.0589,0.0425,0.0144,0.0167,0.0198,0.0166,-0.0102,-0.0207,-0.039,-0.0465,0.0022,0.002,0.0019,0,0.0742,0.0779,0.0855,0.0907,0.0927,0.1015,0.1096,0.1146,0.1239,0.1309,0.1373,0.1273,0.1228,0.0899,0.0579,0.0269,0.0099,0.0086,0.0056,-0.0107,-0.0252,-0.0319,-0.0373,0.0056,0.0056,0.0055,0.0055,0,0.0786,0.0815,0.0867,0.0985,0.107,0.1185,0.1301,0.14,0.1485,0.1562,0.1635,0.1597,0.1284,0.0977,0.0545,0.033,-0.0027,0.0065,-0.0102,-0.0232,-0.0314,-0.0406,0.008,0.005,0.0051,0.0051,0.0051,0.0051,0.0817,0.087,0.0953,0.1063,0.1177,0.1342,0.1461,0.1591,0.1744,0.1879,0.1832,0.182,0.1379,0.0791,0.0467,-0.0073,-0.0094,-0.0227,-0.0341,-0.0393,-0.0465,0.0002,-0.0072,-0.0072,-0.0072,-0.0072,-0.0072,0,0.0854,0.0925,0.1031,0.1175,0.132,0.1373,0.1591,0.1722,0.1905,0.2026,0.2072,0.1867,0.1308,0.0763,0.0017,-0.0382,-0.0514,-0.0605,-0.0689,-0.0725,-0.03,-0.0296,-0.0422,-0.0422,-0.0422,-0.0421,-0.0421,-0.0421,0.0876,0.0977,0.104,0.1267,0.1384,0.1595,0.1732,0.1907,0.2046,0.2202,0.2221,0.2205,0.179,0.0368,-0.0528,-0.0732,-0.1006,-0.1099,-0.1238,-0.0946,-0.0918,-0.0892,-0.0912,-0.1164,-0.1165,-0.1576,-0.1581,-0.1584]}],[{"header":{"parameterUnit":"m.s-1","parameterCategory":2,"la1":30.2991,"la2":30.254,"lo1":-89.0895,"lo2":-89.0444,"dy":0.0017,"dx":0.0017,"nx":28,"ny":28,"refTime":"2025-03-21T21:00:00:Z","depth":"2","parameterNumber":2,"parameterNumberName":"U-component_of_CURRENTS"},"data":[0,0,0,0,0,0,0,0,0,0,0,0,0,0,0,0,0,0,0,0,0,0,0,0,0,0,0,0,0,0,0,0,0,0,0,0,0,0,0,0,0,0,0,0,0,0,0,0,0,0,0,0,0,0,0,0,0,0,0.2945,0.2945,0,0.296,0.296,0.296,0.2961,0.2962,0.2962,0.2962,0.2986,0.2986,0.2986,0,0,0,0,0,0,0,0,0,0,0,0,0,0.287,0.2872,0.2944,0.2945,0.2946,0.296,0.296,0.296,0.2961,0.2962,0.2962,0.2962,0.2985,0.2986,0.2986,0,0,0,0,0,0,0,0,0,0,0,0,0,0.2891,0.2872,0.2944,0.2952,0.2953,0.296,0.296,0.296,0.2961,0.2962,0.2962,0.2963,0.2985,0.2986,0.2986,0.2981,0,0,0.2988,0.2988,0,0,0,0,0,0,0,0,0.289,0.2894,0.295,0.2952,0.2953,0.2964,0.2943,0.2969,0.2961,0.2953,0.2962,0.2963,0.2982,0.2983,0.2978,0.2982,0.2983,0.2988,0.2988,0.2989,0.2989,0,0,0,0,0,0,0,0.2889,0.2893,0.2946,0.2951,0.2953,0.2939,0.2943,0.2947,0.2961,0.2954,0.2955,0.2965,0.2982,0.2977,0.2978,0.2983,0.2988,0.2988,0.2989,0.2989,0.3106,0.3108,0,0,0,0,0,0,0.2899,0.2892,0.2945,0.2947,0.2928,0.2941,0.2944,0.2956,0.2961,0.2964,0.2964,0.2965,0.2976,0.2978,0.2979,0.3051,0.2989,0.2989,0.2989,0.3103,0.3106,0.3109,0,0,0,0,0,0,0.2897,0.2904,0.2945,0.2923,0.2928,0.2943,0.2955,0.2956,0.2981,0.297,0.2971,0.2992,0.2976,0.2978,0.3022,0.3049,0.2989,0.299,0.31,0.3104,0.3108,0.3145,0,0,0,0,0,0,0.2895,0.2903,0.2907,0.2924,0.293,0.2976,0.2955,0.2956,0.2987,0.2988,0.2994,0.2995,0.2977,0.3022,0.3023,0.3049,0.299,0.3096,0.3102,0.3107,0.3141,0.315,0.3159,0,0,0,0,0,0.2892,0.2902,0.2907,0.2914,0.2938,0.2978,0.298,0.2987,0.2988,0.3009,0.3021,0.2996,0.3056,0.3024,0.3025,0.3052,0.3094,0.31,0.3106,0.3137,0.3149,0.3159,0,0,0,0,0,0,0.2874,0.2904,0.291,0.2929,0.2964,0.2981,0.2998,0.3008,0.3031,0.3035,0.3024,0.3026,0.3077,0.3071,0.3037,0.3108,0.3074,0.3081,0.3097,0.3108,0.3117,0.3118,0.2991,0,0,0,0,0,0.2873,0.2897,0.2924,0.2951,0.2967,0.2989,0.3004,0.3016,0.3041,0.3051,0.3056,0.3072,0.3098,0.311,0.3126,0.3158,0.3157,0.3183,0.3192,0.32,0.3206,0.3237,0.3248,0.313,0.313,0.313,0,0,0.2871,0.2899,0.2908,0.295,0.2975,0.2993,0.2999,0.3041,0.3063,0.305,0.3084,0.3104,0.3118,0.3157,0.3179,0.3156,0.3236,0.3208,0.3213,0.3216,0.3245,0.3256,0.3266,0.3134,0.3134,0.3133,0,0,0.2881,0.2913,0.2923,0.2959,0.3008,0.3021,0.3043,0.3075,0.3098,0.3137,0.3141,0.3188,0.3209,0.3229,0.324,0.3316,0.3286,0.3325,0.336,0.339,0.3399,0.3407,0.3419,0.3427,0.3323,0.3323,0.3323,0,0.2867,0.2898,0.2937,0.2964,0.2995,0.3038,0.3058,0.3087,0.313,0.3158,0.3158,0.3227,0.3243,0.3297,0.3328,0.3333,0.3338,0.3307,0.3398,0.3406,0.3413,0.3423,0.3432,0.3326,0.3326,0.3325,0.3325,0,0.288,0.291,0.2935,0.2976,0.3012,0.3055,0.3098,0.3136,0.3169,0.3194,0.327,0.33,0.334,0.3361,0.3365,0.3435,0.3417,0.3405,0.3359,0.3427,0.3434,0.3442,0.333,0.3329,0.3328,0.3327,0,0,0.2821,0.2915,0.2921,0.2947,0.3028,0.3052,0.3112,0.3169,0.3212,0.3261,0.3316,0.3382,0.3409,0.3428,0.3448,0.3482,0.3544,0.347,0.347,0.346,0.36,0.3531,0.3534,0.3541,0.3542,0.3544,0.3581,0,0.2814,0.2851,0.2913,0.2958,0.2979,0.306,0.3111,0.3175,0.324,0.3303,0.3365,0.3428,0.3431,0.3466,0.3502,0.3547,0.3569,0.3534,0.3554,0.3555,0.3468,0.3543,0.3283,0.329,0.3589,0.3591,0.3592,0,0.2789,0.2823,0.2857,0.2952,0.297,0.3005,0.3103,0.3165,0.3277,0.333,0.3407,0.3461,0.3547,0.3532,0.3617,0.3593,0.3602,0.362,0.3621,0.3549,0.3503,0.3274,0.3293,0.3606,0.3605,0.3604,0.3603,0,0.2707,0.2784,0.2811,0.2844,0.2947,0.2987,0.305,0.3164,0.3246,0.336,0.343,0.3512,0.3586,0.3612,0.3669,0.3649,0.3743,0.3712,0.365,0.3644,0.3423,0.3395,0.3753,0.3753,0.3753,0.3753,0.3753,0,0.2676,0.2698,0.2772,0.279,0.2834,0.2932,0.3017,0.3094,0.3238,0.3328,0.3443,0.3518,0.3615,0.3686,0.369,0.3706,0.3757,0.3672,0.3658,0.3431,0.3404,0.3677,0.3667,0.3754,0.3754,0.3754,0.3754,0,0.2602,0.2653,0.2684,0.2772,0.2801,0.2835,0.2999,0.3068,0.3214,0.3338,0.3386,0.3558,0.3642,0.3714,0.3777,0.3746,0.3754,0.3734,0.3459,0.3413,0.3623,0.3616,0.3669,0.3667,0.3665,0.3664,0.3663,0,0.2574,0.2577,0.2645,0.2665,0.2713,0.279,0.2856,0.3022,0.3115,0.3339,0.3389,0.3545,0.3606,0.3693,0.3668,0.366,0.3724,0.341,0.3328,0.3637,0.3619,0.3615,0.361,0.3047,0.3041,0.3036,0.3032,0,0.252,0.254,0.2566,0.2599,0.2651,0.2719,0.2829,0.2886,0.3084,0.319,0.331,0.3384,0.3503,0.3395,0.3429,0.3383,0.3393,0.3309,0.3709,0.3117,0.3056,0.3038,0.3052,0.2988,0.2992,0.2995,0.2998,0.3,0.2477,0.2471,0.2499,0.253,0.2583,0.262,0.2628,0.2749,0.2844,0.2956,0.3111,0.3127,0.3191,0.3104,0.3008,0.2948,0.3174,0.3032,0.3044,0.3063,0.2993,0.2934,0.2828,0.2831,0.2834,0.2837,0.2839,0,0.2407,0.2412,0.2434,0.2448,0.2452,0.2523,0.2589,0.2567,0.2586,0.272,0.2789,0.2599,0.2564,0.2613,0.2461,0.2475,0.2427,0.2369,0.2279,0.2327,0.2369,0.226,0.1902,0.1898,0.1895,0.1892,0,0,0.237,0.2343,0.2347,0.2306,0.2319,0.2279,0.2271,0.2245,0.2295,0.2257,0.2256,0.2463,0.2562,0.2194,0.2163,0.2001,0.2139,0.1926,0.269,0.2635,0.2672,0.2779,0.267,0,0,0,0,0]},{"header":{"parameterUnit":"m.s-1","parameterCategory":2,"la1":30.2991,"la2":30.254,"lo1":-89.0895,"lo2":-89.0444,"dy":0.0017,"dx":0.0017,"nx":28,"ny":28,"refTime":"2025-03-21T21:00:00:Z","depth":"2","parameterNumber":3,"parameterNumberName":"V-component_of_CURRENTS"},"data":[0,0,0,0,0,0,0,0,0,0,0,0,0,0,0,0,0,0,0,0,0,0,0,0,0,0,0,0,0,0,0,0,0,0,0,0,0,0,0,0,0,0,0,0,0,0,0,0,0,0,0,0,0,0,0,0,0,0,0.0151,0.0151,0,0.01,0.01,0.0099,0.0061,0.006,0.006,0.006,-0.0001,-0.0002,-0.0004,0,0,0,0,0,0,0,0,0,0,0,0,0,0.0187,0.0187,0.0151,0.0151,0.015,0.0101,0.01,0.0099,0.0061,0.006,0.006,0.006,-0.0001,-0.0002,-0.0004,0,0,0,0,0,0,0,0,0,0,0,0,0,0.0157,0.0186,0.0151,0.0126,0.0123,0.0101,0.01,0.0099,0.0061,0.006,0.006,0.0059,0.0,-0.0002,-0.0004,-0.0008,0,0,-0.001,-0.0011,0,0,0,0,0,0,0,0,0.0158,0.0155,0.013,0.0127,0.0124,0.0087,0.009,0.0063,0.0061,0.0083,0.006,0.0059,0.0028,0.0024,0.0014,-0.0011,-0.0014,-0.001,-0.0012,-0.0012,-0.0013,0,0,0,0,0,0,0,0.0161,0.0157,0.013,0.013,0.0126,0.0107,0.0102,0.0085,0.0058,0.0081,0.0079,0.0075,0.0027,0.0016,0.0013,-0.0015,-0.001,-0.0012,-0.0013,-0.0014,-0.0044,-0.0044,0,0,0,0,0,0,0.0171,0.0159,0.0132,0.0129,0.0142,0.0107,0.0102,0.0099,0.0058,0.0052,0.0075,0.0073,0.002,0.0015,0.001,0.0018,-0.0012,-0.0014,-0.0016,-0.0045,-0.0044,-0.0044,0,0,0,0,0,0,0.0172,0.0169,0.0134,0.0143,0.0138,0.0107,0.0104,0.0098,0.0091,0.0054,0.0047,0.0075,0.002,0.0013,-0.0,0.0015,-0.0015,-0.0017,-0.0045,-0.0044,-0.0044,0.0024,0,0,0,0,0,0,0.0173,0.0169,0.0172,0.0144,0.0138,0.0131,0.0104,0.0097,0.009,0.0086,0.0051,0.0045,0.0019,0.0003,-0.0002,0.0012,-0.0019,-0.0046,-0.0045,-0.0044,0.0021,0.0027,0.0032,0,0,0,0,0,0.0174,0.0186,0.0172,0.0169,0.0142,0.0132,0.0127,0.0103,0.009,0.0094,0.0067,0.0046,0.0004,0.0002,-0.0005,0.0009,-0.0046,-0.0045,-0.0044,0.0019,0.0026,0.0031,0,0,0,0,0,0,0.021,0.0183,0.0167,0.0171,0.0155,0.0126,0.0128,0.011,0.0092,0.0089,0.0052,0.0044,0.0035,0.0013,0.0012,0.0002,-0.0024,-0.0025,0.0026,0.0032,0.0037,0.0061,-0.002,0,0,0,0,0,0.0217,0.0217,0.0188,0.0194,0.0187,0.0158,0.0151,0.0135,0.0115,0.0106,0.008,0.0054,0.0034,0.0027,0.0003,0.0002,-0.0025,0.0005,0.0011,0.0015,0.003,0.0,0.0005,-0.0041,-0.0041,-0.0041,0,0,0.0233,0.0219,0.0219,0.0202,0.0186,0.0187,0.0153,0.015,0.0157,0.0103,0.0104,0.0069,0.0036,0.003,0.0026,0.0016,0.0012,0.0017,0.0021,0.0033,0.0002,0.0006,0.001,-0.004,-0.004,-0.004,0,0,0.027,0.0252,0.0263,0.0254,0.0236,0.0216,0.0219,0.0192,0.0186,0.0177,0.0141,0.012,0.0088,0.0071,0.0057,0.0079,0.0037,0.0067,0.0119,0.009,0.0094,0.0097,0.0063,0.0063,0.0075,0.0075,0.0075,0,0.0291,0.03,0.0267,0.0278,0.0278,0.0234,0.0251,0.0239,0.0213,0.0218,0.0187,0.0143,0.011,0.0112,0.0115,0.0093,0.0065,0.0099,0.0098,0.0101,0.0102,0.0067,0.0066,0.0078,0.0078,0.0078,0.0077,0,0.0334,0.0342,0.0352,0.0346,0.034,0.0351,0.0326,0.0329,0.0307,0.0287,0.0278,0.0225,0.0203,0.0184,0.0155,0.0158,0.0129,0.0105,0.0086,0.0111,0.0072,0.0069,0.0083,0.0082,0.0081,0.008,0,0,0.0385,0.0382,0.0389,0.0399,0.038,0.0384,0.0401,0.0403,0.0428,0.0381,0.0402,0.0348,0.0311,0.0294,0.025,0.0223,0.0202,0.0176,0.0172,0.0149,0.0133,0.0105,0.0098,0.0175,0.0175,0.0175,0.0099,0,0.0432,0.0472,0.0453,0.049,0.0505,0.048,0.0505,0.0502,0.0486,0.0494,0.0438,0.0427,0.0356,0.0346,0.0308,0.0234,0.0199,0.0225,0.0107,0.0104,0.008,0.0096,0.011,0.0043,0.0096,0.0095,0.0095,0,0.0481,0.0502,0.0548,0.0571,0.0577,0.0592,0.0626,0.0644,0.0642,0.063,0.06,0.0545,0.0503,0.0435,0.032,0.0338,0.0246,0.0177,0.0172,0.0124,0.0071,0.0026,0.0036,0.009,0.009,0.009,0.0091,0,0.0537,0.0569,0.061,0.0617,0.0634,0.0663,0.0679,0.069,0.0734,0.0718,0.0739,0.0653,0.0633,0.0505,0.0349,0.0337,0.0215,0.0179,0.0063,0.0059,0.0039,0.0034,0.0096,0.0096,0.0097,0.0097,0.0097,0,0.0591,0.0624,0.0644,0.0669,0.0736,0.0726,0.0807,0.081,0.0848,0.0909,0.0816,0.0837,0.065,0.0552,0.039,0.0221,0.0241,0.008,0.0043,0.0061,0.0059,0.0075,0.0073,0.0094,0.0095,0.0095,0.0096,0,0.0636,0.0649,0.0702,0.0742,0.0761,0.0813,0.0898,0.0968,0.0981,0.106,0.1061,0.0986,0.0853,0.065,0.0444,0.0294,0.0119,0.0049,0.0079,0.0047,-0.0028,-0.0026,-0.0076,-0.0077,-0.0078,-0.0079,-0.008,0,0.0658,0.0692,0.0762,0.0811,0.0831,0.0914,0.0989,0.1032,0.1117,0.1155,0.1209,0.11,0.1042,0.0724,0.0427,0.0139,0.0105,-0.003,-0.0051,-0.0013,-0.0044,-0.0039,-0.0034,-0.0058,-0.0059,-0.006,-0.006,0,0.0701,0.073,0.0778,0.0886,0.0967,0.1075,0.1184,0.1269,0.1335,0.1392,0.1434,0.1382,0.108,0.0781,0.0384,0.0192,0.0015,-0.0049,-0.0013,-0.0013,-0.0002,-0.003,-0.0026,-0.0065,-0.0064,-0.0064,-0.0064,-0.0064,0.0734,0.0783,0.0861,0.0964,0.1069,0.1219,0.1328,0.1444,0.1571,0.1661,0.1601,0.1529,0.1184,0.0676,0.0325,-0.0033,-0.0007,-0.0131,-0.0127,-0.0123,-0.0103,-0.0094,-0.0172,-0.0172,-0.0172,-0.0172,-0.0172,0,0.0771,0.0837,0.0936,0.1069,0.1202,0.1255,0.145,0.1561,0.1709,0.1768,0.1788,0.1455,0.1107,0.0714,0.0176,-0.0138,-0.0154,-0.0232,-0.019,-0.0182,-0.0177,-0.0159,-0.0243,-0.0244,-0.0245,-0.0246,0,0,0.0792,0.0886,0.0943,0.1154,0.1264,0.1459,0.158,0.1719,0.1811,0.1862,0.1816,0.1721,0.1226,0.0825,0.038,0.0066,0.0027,0.0014,0.0105,0.0216,0.0226,-0.0087,-0.0048,0,0,0,0,0]}],[{"header":{"parameterUnit":"m.s-1","parameterCategory":2,"la1":30.2991,"la2":30.254,"lo1":-89.0895,"lo2":-89.0444,"dy":0.0017,"dx":0.0017,"nx":28,"ny":28,"refTime":"2025-03-21T21:00:00:Z","depth":"4","parameterNumber":2,"parameterNumberName":"U-component_of_CURRENTS"},"data":[0,0,0,0,0,0,0,0,0,0,0,0,0,0,0,0,0,0,0,0,0,0,0,0,0,0,0,0,0,0,0,0,0,0,0,0,0,0,0,0,0,0,0,0,0,0,0,0,0,0,0,0,0,0,0,0,0,0,0.1661,0.1662,0,0.174,0.174,0.1741,0.1801,0.1801,0.1802,0.1803,0.1878,0.1879,0.188,0,0,0,0,0,0,0,0,0,0,0,0,0,0.1604,0.1604,0.1661,0.1662,0.1664,0.1739,0.174,0.1741,0.18,0.1801,0.1802,0.1803,0.1878,0.1879,0.188,0,0,0,0,0,0,0,0,0,0,0,0,0,0.1647,0.1604,0.1661,0.1705,0.171,0.1739,0.174,0.1741,0.18,0.1801,0.1803,0.1804,0.1877,0.1879,0.1881,0.1867,0,0,0.1886,0.1887,0,0,0,0,0,0,0,0,0.1644,0.1649,0.1697,0.1702,0.1707,0.1764,0.1748,0.1784,0.18,0.1763,0.1803,0.1805,0.1841,0.1846,0.1853,0.187,0.1874,0.1886,0.1888,0.1888,0.1889,0,0,0,0,0,0,0,0.1641,0.1646,0.1689,0.1698,0.1705,0.1735,0.1741,0.1755,0.1791,0.1766,0.1771,0.1784,0.1843,0.1851,0.1855,0.1875,0.1886,0.1888,0.1889,0.189,0.198,0.1981,0,0,0,0,0,0,0.1634,0.1643,0.1687,0.1692,0.1682,0.1735,0.1742,0.1742,0.1791,0.1801,0.1783,0.1787,0.1848,0.1853,0.1858,0.1943,0.1888,0.189,0.1891,0.1979,0.198,0.1982,0,0,0,0,0,0,0.1632,0.1637,0.1684,0.1672,0.1681,0.1734,0.1734,0.1743,0.1791,0.1805,0.1814,0.1827,0.1849,0.1856,0.1902,0.1943,0.1891,0.1892,0.1977,0.1979,0.1981,0.205,0,0,0,0,0,0,0.163,0.1635,0.1648,0.1671,0.1681,0.1719,0.1733,0.1744,0.1797,0.1803,0.1845,0.1851,0.185,0.19,0.1904,0.1944,0.1894,0.1976,0.1978,0.198,0.2046,0.2054,0.2061,0,0,0,0,0,0.1627,0.1636,0.1648,0.1655,0.1692,0.172,0.1728,0.1768,0.1798,0.1817,0.1852,0.1852,0.1918,0.1902,0.1907,0.1949,0.1974,0.1977,0.198,0.2042,0.2052,0.206,0,0,0,0,0,0,0.1624,0.1643,0.1657,0.1673,0.1704,0.1731,0.1764,0.1789,0.1832,0.1855,0.1867,0.1875,0.1934,0.1927,0.1909,0.1981,0.1947,0.1951,0.1992,0.2002,0.2009,0.2016,0.1895,0,0,0,0,0,0.1626,0.1636,0.1662,0.168,0.1701,0.174,0.1766,0.1792,0.1827,0.1851,0.1881,0.1912,0.1941,0.1962,0.1982,0.2018,0.2026,0.2047,0.2055,0.2061,0.207,0.2114,0.2126,0.1991,0.1991,0.1991,0,0,0.1636,0.1645,0.1657,0.1681,0.1714,0.1742,0.1759,0.1809,0.1844,0.185,0.192,0.1945,0.1958,0.2004,0.2029,0.2009,0.2106,0.2065,0.207,0.2076,0.2118,0.2131,0.2143,0.1993,0.1993,0.1993,0,0,0.1647,0.1668,0.1682,0.1708,0.1756,0.1773,0.1795,0.1844,0.1884,0.1938,0.196,0.201,0.2049,0.207,0.2083,0.2141,0.2147,0.2153,0.2196,0.2238,0.225,0.226,0.2296,0.2309,0.2152,0.2152,0.2153,0,0.1666,0.1673,0.1694,0.1718,0.1749,0.179,0.1823,0.1861,0.1921,0.196,0.1971,0.2062,0.2079,0.2136,0.2163,0.216,0.2184,0.2162,0.2249,0.226,0.2269,0.2303,0.2317,0.2156,0.2156,0.2155,0.2155,0,0.1677,0.1703,0.1722,0.1755,0.1789,0.1827,0.1876,0.1926,0.1979,0.2017,0.2105,0.2133,0.2188,0.2203,0.2205,0.2283,0.228,0.2258,0.2228,0.2287,0.2319,0.2332,0.2161,0.216,0.2159,0.2158,0,0,0.1673,0.1718,0.1731,0.1755,0.1816,0.1841,0.1909,0.1972,0.2031,0.2098,0.2174,0.2236,0.2273,0.229,0.2306,0.2343,0.2436,0.2339,0.2339,0.2378,0.254,0.2372,0.237,0.2438,0.244,0.2442,0.2539,0,0.1684,0.1716,0.1744,0.1799,0.1824,0.1886,0.1936,0.2007,0.2079,0.2161,0.2221,0.2299,0.2299,0.2345,0.2386,0.2432,0.2472,0.2412,0.2475,0.2477,0.2322,0.2379,0.245,0.2548,0.2551,0.2553,0.2555,0,0.1687,0.1705,0.1751,0.1812,0.1835,0.1879,0.1979,0.2034,0.215,0.2217,0.231,0.2362,0.2458,0.2436,0.2547,0.2515,0.2541,0.2558,0.2561,0.2388,0.2331,0.2475,0.2578,0.2576,0.2574,0.2573,0.2571,0,0.1654,0.1715,0.1747,0.1772,0.1845,0.1898,0.195,0.206,0.2125,0.2272,0.2343,0.2447,0.2525,0.2576,0.2633,0.2608,0.2734,0.2695,0.2563,0.2552,0.2645,0.2633,0.2761,0.2761,0.2761,0.2761,0.276,0,0.1631,0.1668,0.1741,0.1761,0.1814,0.1887,0.1973,0.205,0.2175,0.2249,0.2378,0.2448,0.2569,0.2648,0.2672,0.2662,0.2771,0.2582,0.2566,0.2672,0.2662,0.2655,0.2641,0.2764,0.2763,0.2763,0.2762,0,0.1586,0.1634,0.1682,0.1769,0.1799,0.1847,0.197,0.2021,0.2167,0.2272,0.2327,0.2491,0.259,0.2677,0.2771,0.2699,0.2709,0.2675,0.2803,0.2791,0.2491,0.248,0.253,0.2525,0.252,0.2517,0.2514,0,0.1554,0.1574,0.1675,0.1699,0.1745,0.1826,0.1863,0.2002,0.206,0.2268,0.2297,0.2462,0.2548,0.2563,0.2655,0.2686,0.2649,0.2637,0.2536,0.2488,0.2469,0.2464,0.2459,0.2507,0.2506,0.2505,0.2503,0,0.1495,0.1555,0.1592,0.1635,0.1685,0.1726,0.1804,0.1837,0.1992,0.2144,0.2226,0.2289,0.2393,0.246,0.251,0.2519,0.2632,0.2591,0.2598,0.2504,0.2461,0.2445,0.2445,0.2488,0.2491,0.2492,0.2493,0,0.1461,0.1473,0.1525,0.1552,0.1606,0.1605,0.1661,0.1719,0.1795,0.2018,0.2039,0.2216,0.2368,0.2375,0.2417,0.242,0.237,0.2279,0.2302,0.2319,0.2201,0.2112,0.2028,0,0,0,0,0,0.1408,0.1401,0.1422,0.1442,0.149,0.1517,0.16,0.1662,0.1818,0.1821,0.1928,0.2014,0.209,0.2183,0.2142,0.2308,0.2371,0.2248,0.2275,0.2405,0.2422,0.23,0,0,0,0,0,0,0.1367,0.1392,0.1386,0.134,0.1337,0.1365,0.1415,0.1514,0.1528,0.1705,0.1763,0.1894,0.2002,0.2106,0.2111,0.2134,0.2107,0.2355,0.2349,0.2395,0.2411,0.2425,0.2305,0,0,0,0,0]},{"header":{"parameterUnit":"m.s-1","parameterCategory":2,"la1":30.2991,"la2":30.254,"lo1":-89.0895,"lo2":-89.0444,"dy":0.0017,"dx":0.0017,"nx":28,"ny":28,"refTime":"2025-03-21T21:00:00:Z","depth":"4","parameterNumber":3,"parameterNumberName":"V-component_of_CURRENTS"},"data":[0,0,0,0,0,0,0,0,0,0,0,0,0,0,0,0,0,0,0,0,0,0,0,0,0,0,0,0,0,0,0,0,0,0,0,0,0,0,0,0,0,0,0,0,0,0,0,0,0,0,0,0,0,0,0,0,0,0,0.0114,0.0114,0,0.0079,0.0078,0.0078,0.0051,0.0051,0.005,0.005,0.0012,0.0011,0.001,0,0,0,0,0,0,0,0,0,0,0,0,0,0.0135,0.0135,0.0114,0.0114,0.0114,0.0079,0.0078,0.0078,0.0051,0.0051,0.005,0.005,0.0012,0.0011,0.001,0,0,0,0,0,0,0,0,0,0,0,0,0,0.0115,0.0135,0.0114,0.0097,0.0095,0.0079,0.0078,0.0077,0.0051,0.0051,0.005,0.005,0.0012,0.0011,0.001,0.0007,0,0,0.0006,0.0005,0,0,0,0,0,0,0,0,0.0116,0.0114,0.01,0.0098,0.0096,0.0069,0.0071,0.0054,0.0051,0.0067,0.005,0.005,0.0031,0.0028,0.0021,0.0005,0.0004,0.0006,0.0005,0.0004,0.0004,0,0,0,0,0,0,0,0.0118,0.0115,0.0099,0.0099,0.0097,0.0082,0.0079,0.0068,0.005,0.0065,0.0064,0.0061,0.003,0.0023,0.002,0.0003,0.0006,0.0004,0.0004,0.0003,-0.0018,-0.0018,0,0,0,0,0,0,0.0125,0.0117,0.0101,0.0098,0.0106,0.0082,0.0079,0.0078,0.0051,0.0046,0.0061,0.006,0.0025,0.0022,0.0019,0.0024,0.0004,0.0003,0.0002,-0.0018,-0.0018,-0.0018,0,0,0,0,0,0,0.0126,0.0124,0.0102,0.0107,0.0103,0.0082,0.0081,0.0077,0.0073,0.0047,0.0043,0.0061,0.0025,0.0021,0.0013,0.0022,0.0002,0.0001,-0.0018,-0.0018,-0.0018,0.0028,0,0,0,0,0,0,0.0126,0.0124,0.0127,0.0108,0.0103,0.01,0.0081,0.0077,0.0071,0.0069,0.0046,0.0042,0.0024,0.0015,0.0012,0.002,0.0,-0.0019,-0.0018,-0.0018,0.0027,0.003,0.0033,0,0,0,0,0,0.0127,0.0135,0.0127,0.0125,0.0107,0.01,0.0097,0.008,0.0072,0.0074,0.0057,0.0043,0.0015,0.0014,0.001,0.0018,-0.0019,-0.0018,-0.0018,0.0025,0.003,0.0033,0,0,0,0,0,0,0.0149,0.0133,0.0123,0.0127,0.0116,0.0096,0.0097,0.0085,0.0073,0.0072,0.0047,0.0042,0.0037,0.0021,0.0021,0.0012,-0.0005,-0.0005,0.0029,0.0033,0.0037,0.0051,-0.0001,0,0,0,0,0,0.0154,0.0156,0.0137,0.0142,0.0137,0.0118,0.0113,0.0103,0.0089,0.0083,0.0067,0.0049,0.0035,0.003,0.0014,0.0013,-0.0012,0.0014,0.0018,0.0021,0.0029,-0.0007,-0.0006,-0.0016,-0.0016,-0.0016,0,0,0.0164,0.0156,0.0157,0.0146,0.0136,0.0137,0.0114,0.0113,0.0119,0.0082,0.0085,0.006,0.0036,0.0032,0.0029,0.0022,0.0011,0.0022,0.0025,0.0031,-0.0007,-0.0006,-0.0005,-0.0016,-0.0016,-0.0016,0,0,0.0188,0.0178,0.0186,0.0181,0.017,0.0157,0.0159,0.0142,0.0139,0.0135,0.011,0.0093,0.0074,0.0058,0.0047,0.006,0.0028,0.0055,0.0087,0.0052,0.0052,0.0052,0.0023,0.002,0.0059,0.0059,0.0059,0,0.0202,0.0209,0.0188,0.0197,0.0198,0.0169,0.0182,0.0175,0.0159,0.016,0.0143,0.0109,0.0086,0.008,0.0084,0.0069,0.0044,0.0075,0.0056,0.0056,0.0055,0.0025,0.0021,0.0061,0.0061,0.0061,0.0061,0,0.0229,0.0237,0.0244,0.0243,0.0241,0.0248,0.0234,0.0238,0.0225,0.0209,0.0198,0.0162,0.0142,0.0129,0.0112,0.0101,0.0083,0.0063,0.0048,0.0059,0.0026,0.0022,0.0065,0.0064,0.0063,0.0063,0,0,0.0261,0.0262,0.0268,0.0278,0.0268,0.0273,0.0286,0.0286,0.03,0.0269,0.0277,0.0239,0.021,0.0197,0.0166,0.0135,0.0106,0.0104,0.0101,0.0078,0.0031,0.0022,0.0016,0.0081,0.008,0.008,0.001,0,0.0291,0.032,0.031,0.034,0.0351,0.0339,0.0356,0.0353,0.034,0.0341,0.0295,0.0285,0.0239,0.0233,0.0193,0.0131,0.0096,0.0128,0.002,0.0017,0.0011,0.0011,0.0078,0.0006,0.0005,0.0004,0.0004,0,0.0322,0.0339,0.0373,0.0394,0.0399,0.0415,0.0439,0.0452,0.0441,0.0432,0.0403,0.0361,0.032,0.0276,0.017,0.0192,0.0119,0.0063,0.0058,0.0033,-0.0,-0.0009,-0.0005,-0.0005,-0.0004,-0.0003,-0.0003,0,0.0357,0.0385,0.0417,0.0424,0.044,0.0465,0.0479,0.0482,0.0508,0.0493,0.0498,0.0427,0.0405,0.0301,0.0179,0.0176,0.0054,0.0032,-0.0046,-0.0048,-0.0039,-0.0039,-0.0046,-0.0046,-0.0046,-0.0046,-0.0045,0,0.0389,0.0417,0.0441,0.0461,0.0511,0.0509,0.0567,0.057,0.0587,0.0614,0.055,0.0551,0.0409,0.032,0.0199,0.0064,0.0065,-0.0038,-0.0066,-0.0018,-0.0015,-0.0043,-0.0042,-0.0048,-0.0048,-0.0047,-0.0047,0,0.0416,0.043,0.0474,0.0511,0.0529,0.057,0.0634,0.0676,0.068,0.0715,0.0715,0.0647,0.0534,0.0378,0.021,0.0103,-0.0034,-0.0086,-0.0017,-0.0041,-0.0116,-0.0112,-0.0171,-0.0172,-0.0172,-0.0173,-0.0174,0,0.0425,0.0452,0.0518,0.0558,0.0579,0.0645,0.0697,0.0724,0.0771,0.0773,0.0793,0.0702,0.0632,0.0401,0.0225,-0.0009,-0.0048,-0.0125,-0.0126,-0.0107,-0.0129,-0.0123,-0.0118,-0.0175,-0.0175,-0.0175,-0.0175,0,0.0447,0.0478,0.0517,0.0603,0.0666,0.0744,0.0816,0.0855,0.0886,0.0885,0.0864,0.0739,0.0612,0.0419,0.0231,0.006,-0.0078,-0.0134,-0.0133,-0.0135,-0.0113,-0.0132,-0.0126,-0.0178,-0.0178,-0.0177,-0.0177,0,0.0466,0.0503,0.0565,0.0641,0.0729,0.0817,0.0854,0.0907,0.0946,0.0937,0.0929,0.0783,0.0699,0.0456,0.0283,0.0112,0.0068,0.0004,-0.0004,-0.0003,0.0058,0.0111,0.0095,0,0,0,0,0,0.0479,0.0525,0.0598,0.0688,0.0782,0.0837,0.0922,0.0954,0.0978,0.0973,0.0954,0.0833,0.0587,0.0492,0.0322,0.0255,0.0025,0.0047,-0.0054,-0.0192,-0.0189,-0.0148,0,0,0,0,0,0,0.0487,0.0553,0.0595,0.0717,0.0792,0.0898,0.0959,0.0976,0.0981,0.0973,0.0859,0.0785,0.0559,0.069,0.032,0.0267,0.0177,-0.0067,-0.0071,-0.0194,-0.0191,-0.0189,-0.0146,0,0,0,0,0]}]]